Dijon-Prenois
3.195 km / 1.985 mi

All Car Categories
Driver Car Server Time Gap Laps Date
Adrian Veliz Fantasy Livery rF-Argentina #1 Metalmoro 1:02.694 - 113 2018/08/06
marianosuarez27 Factory Livery rF-Argentina #1 Metalmoro 1:02.845 0.151 39 2018/08/07
Federico Cravero Factory Livery rF-Argentina 1:03.018 0.324 18 2018/07/25
Daniel Hill Fantasy Livery rF-Argentina #1 Metalmoro 1:03.209 0.515 51 2018/08/07
Marcos Borgoratti Factory Livery rF-Argentina #1 Metalmoro 1:03.324 0.630 88 2018/08/07
Pablo Lorenti Factory Livery rF-Argentina #1 Metalmoro 1:03.346 0.652 37 2018/08/07
Adrian Veliz Factory Livery rF-Argentina 1:03.378 0.684 27 2018/07/25
Leandro Molina Factory Livery rF-Argentina #1 Metalmoro 1:03.848 1.154 114 2018/08/07
Rob Curia Factory Livery rF-Argentina #1 Metalmoro 1:03.911 1.217 14 2018/08/01
Lucas Corsino Factory Livery rF-Argentina #1 Metalmoro 1:04.111 1.417 9 2018/08/04
Hernan Filippini Fantasy Livery rF-Argentina #1 Metalmoro 1:04.592 1.899 21 2018/08/01
Rob Curia Mercedes A45 rF-Argentina #1 1:05.772 3.079 58 2019/06/04
Adrian Veliz Ford Focus rF-Argentina #1 1:05.944 3.250 69 2019/06/01
Marcos Borgoratti Vauxhall Astra rF-Argentina #1 1:06.024 3.330 64 2019/06/03
Carlos Gorosito Vauxhall Astra rF-Argentina #1 1:06.127 3.433 33 2019/06/02
Gustavo Di Cristofaro Mercedes A45 rF-Argentina #1 1:06.134 3.440 58 2019/06/03
Julian Lopez Ford Focus rF-Argentina #1 1:06.320 3.627 23 2019/06/02
Mariano Suarez Mercedes A45 rF-Argentina #1 1:06.361 3.667 47 2019/06/01
Carlos Chirbone Vauxhall Astra rF-Argentina #1 1:06.519 3.825 2 2019/05/29
Marcos Borgoratti Vauxhall Astra rF-Argentina #1 1:06.541 3.847 49 2019/06/04
Hernan Rossi Vauxhall Astra rF-Argentina #1 1:06.559 3.865 68 2019/05/30
German Murgan Factory Livery rF-Argentina #2 Metalmoro 1:06.565 3.871 26 2018/07/30
Dario Andrade Mercedes A45 rF-Argentina #1 1:06.648 3.954 30 2019/06/03
Franco Panini Factory Livery rF-Argentina #2 Metalmoro 1:06.979 4.285 2 2018/07/29
Daniel Hill Vauxhall Astra rF-Argentina #1 1:07.064 4.371 18 2019/05/27
German Murgan Vauxhall Astra rF-Argentina #1 1:08.851 6.157 9 2019/06/04
Hernan Rossi Factory Livery rF-Argentina #1 Metalmoro 1:08.869 6.175 11 2018/08/07
Richie Mercedes A45 rF-Argentina #1 1:09.854 7.160 5 2019/05/30
Mariano Suarez Team Pyro rF-Argentina #1 Clio Cup 1:10.123 7.429 59 2018/11/06
Gustavo Di Cristofaro Team Cooksport rF-Argentina #1 Clio Cup 1:10.192 7.498 154 2018/11/05
Aguss MG6 GT rF-Argentina #1 1:10.308 7.614 10 2019/05/30
Rob Curia 20Ten Racing rF-Argentina #1 Clio Cup 1:10.529 7.835 81 2018/11/06
Toto Vaello Team Pyro rF-Argentina #1 Clio Cup 1:10.661 7.968 25 2018/11/06
Adrian Veliz WDE Motorsport rF-Argentina #1 Clio Cup 1:10.673 7.979 75 2018/11/06
Federico Cravero WDE Motorsport rF-Argentina #1 Clio Cup 1:10.731 8.038 54 2018/11/06
Julian Lopez 20Ten Racing rF-Argentina #1 Clio Cup 1:10.833 8.139 52 2018/11/06
Leandro Molina Rangoni Corse rF-Argentina #1 Clio Cup 1:10.843 8.150 131 2018/11/06
Seba Vaello Team Pyro rF-Argentina #1 Clio Cup 1:10.884 8.190 4 2018/11/05
Federico Cravero Team Cooksport rF-Argentina 1:10.984 8.290 56 2018/07/24
Pablo Lorenti 20Ten Racing rF-Argentina 1:10.986 8.292 37 2018/07/24
Daniel Hill 20Ten Racing rF-Argentina #1 Clio Cup 1:11.019 8.325 118 2018/11/06
Marcos Borgoratti 20Ten Racing rF-Argentina #1 Clio Cup 1:11.035 8.341 76 2018/11/06
Hernan Rossi WDE Motorsport rF-Argentina #1 Clio Cup 1:11.184 8.490 155 2018/11/06
Cristian Robledo 20Ten Racing rF-Argentina 1:11.218 8.524 67 2018/07/24
Adrian Veliz 20Ten Racing rF-Argentina 1:11.289 8.595 110 2018/07/24
Lopez 20Ten Racing rF-Argentina #1 Clio Cup 1:11.410 8.716 59 2018/11/01
Cristian Marrero Team BMR Restart with Pyro rF-Argentina 1:11.481 8.787 42 2018/07/24
Toto Vaello Team Pyro rF-Argentina #1 Clio Cup 1:11.671 8.977 99 2018/11/01
Franco Panini 20Ten Racing rF-Argentina 1:12.215 9.521 19 2018/07/24
Maxi Di Marco 20Ten Racing rF-Argentina 1:12.504 9.810 6 2018/07/20
Rob Curia SV Racing rF-Argentina 1:12.577 9.883 8 2018/07/18
Santiago Castro 20Ten Racing rF-Argentina 1:13.333 10.639 14 2018/07/14
Diego Aguirre 20Ten Racing rF-Argentina #1 Clio Cup 1:13.539 10.846 7 2018/10/30
Alex Schouba 20Ten Racing rF-Argentina 1:13.607 10.914 4 2018/07/14
P.Ochoa RH+ 20Ten Racing rF-Argentina #1 Clio Cup 1:15.074 12.380 7 2018/11/01
Lucas Spagnolo Rangoni Corse rF-Argentina 1:17.353 14.659 4 2018/07/15
Sergio Martinelli Team BMR Restart with Pyro rF-Argentina #1 Clio Cup 1:18.039 15.345 9 2018/10/26
Daniel waridel Rangoni Corse rF-Argentina #1 Clio Cup 1:19.549 16.856 4 2018/10/31
Gusano 20Ten Racing rF-Argentina #1 Clio Cup 1:20.078 17.384 5 2018/10/31

Are you sure?

This file will be moved to \r2la_temp